Regional Weather Roundup
Issued by NWS Bismarck, ND

Home | Current Version | Previous Version | Text Only | Print | Product List | Glossary On
Versions: 1 2 3 4 5 6 7 8 9 10 11 12 13 14 15 16 17 18 19 20 21 22 23 24 25 26 27 28 29 30 31 32 33 34 35 36 37 38 39 40 41 42 43 44 45 46 47 48 49 50
000
ASUS43 KBIS 191602
RWRBIS

NWR BROADCAST TEXT
NATIONAL WEATHER SERVICE BISMARCK ND
1000 AM CST SUN FEB 19 2017

NOTE: "FAIR" INDICATES FEW OR NO CLOUDS BELOW 12,000 FEET WITH NO
SIGNIFICANT WEATHER AND/OR OBSTRUCTIONS TO VISIBILITY.


CITY           SKY/WX    TMP DP  RH WIND       PRES   REMARKS
WILLISTON      CLOUDY    34  30  85 E8        29.54F FOG
MINOT          CLOUDY    35  33  92 E9        29.60F
MINOT AFB      NOT AVBL
BISMARCK       FAIR      37  33  85 NE5       29.58F
DICKINSON      CLOUDY    31  31 100 E9        29.49F FOG
GARRISON       NOT AVBL
HETTINGER ARPT FAIR      38  32  79 CALM      29.53F
JAMESTOWN      PTSUNNY   38  34  85 SE12      29.66F
CARRINGTON     FAIR      36  34  93 SE17      29.65F
HAZEN            N/A    N/A N/A N/A NE5       29.57F
MANDAN         FAIR      36  34  93 E5        29.57F
STANLEY        FOG       32  32 100 E14       29.59F VSB<1/4
$$

CITY           SKY/WX    TMP DP  RH WIND       PRES   REMARKS
GRAND FORKS    CLOUDY    39  31  72 SE15      29.75F
GRAND FORKS AF FAIR      37  34  89 S7        29.75F
DEVILS LAKE    PTSUNNY   36  33  89 E17       29.68F
FARGO          FAIR      46  39  76 SE15      29.75F
CAVALIER       FAIR      34  32  93 E7        29.79F
GRAFTON        FAIR      34  34 100 E8        29.80F
GWINNER        FAIR      37  37 100 SE12      29.72S
ROLLA          PTSUNNY   32  32 100 E13       29.70F
$$

CITY           SKY/WX    TMP DP  RH WIND       PRES   REMARKS
ABERDEEN       FAIR      45  36  70 SE18G28   29.67F
MOBRIDGE       FAIR      41  33  73 SE8       29.54F
BUFFALO          N/A     44  34  67 S9        29.43F
RAPID CITY     FAIR      43  31  62 SE5       29.55S
GLASGOW        FOG       31  30  96 SE15G23   29.46S VSB 3/4
SIDNEY         FOG       34  33  96 E5        29.51F VSB 1
WOLF POINT     FOG       33  31  92 E15       29.50F VSB 1/4
GLENDIVE       FOG       31  31 100 NE10      29.47F VSB 3/4
MILES CITY     FAIR      34  30  85 NE6       29.45S
BAKER          FAIR      35  31  85 SE10      29.47F
$$

CITY           SKY/WX    TMP DP  RH WIND       PRES   REMARKS
BILLINGS       PTSUNNY   42  33  70 SW14      29.45R
GREAT FALLS    CLOUDY    45  33  63 SW17      29.41R
$$




USA.gov is the U.S. government's official web portal to all federal, state and local government web resources and services.